GFSMW_prec_radar_210.txt.gz
Reflectivity
-20 -20 -20 -20 -20 -20 -20 -20 -20 -20 -20 -20 -14 11 11 25 21 -6 17 24 -20 -20 2 23 8 18 2 27 24 -12 -20 -20 -20 -20 -20 -20 -20 -20 -20 -20 -20 -20 -20
-20 -20 -20 -20 -20 -20 -20 -3 24 11 2 -12 14 8 31 -17 21 24 -11 -10 -20 -19 -20 -16 -3 31 25 2 -4 -9 -20 -20 -20 -20 -20 -20 -20 -20 -20 -20 -20 -20 -20
-20 -20 -20 -20 -20 -20 -20 -20 -18 13 23 21 25 23 26 24 -4 -2 -5 -20 6 27 -12 -20 -15 -20 -7 -20 -20 -1 13 -4 5 -20 -20 -20 -20 -20 -20 -20 -20 -20 -20
-20 -20 -20 -20 -20 -20 -20 -20 -20 -20 -15 13 27 16 20 8 30 -15 -14 -5 19 28 19 -19 23 -12 -20 -18 -2 -2 29 5 -20 -20 -20 -20 -20 -20 -20 -20 -20 -20 -20
-20 -20 -20 -20 -20 -20 -20 -20 -20 -20 -20 -20 1 28 21 15 13 29 27 12 5 12 22 16 3 16 18 -4 5 -20 -19 -11 -20 -19 -19 -20 -20 -20 -20 -20 -20 -20 -20
-20 -20 -20 -20 -20 -20 -20 -20 -20 -20 -20 -20 -20 -13 12 37 25 30 16 19 22 26 22 5 15 18 23 13 5 -20 -7 25 -6 1 2 -8 -14 -20 -20 -20 -20 -20 -20
-20 -20 -20 -20 -20 -20 -20 -20 -20 -20 -20 -20 -20 -20 -20 21 20 32 34 31 20 15 25 39 30 36 18 27 22 -10 -8 -15 -7 14 -7 -19 -19 -20 -20 -20 -20 -20 -20
-20 -20 -20 -20 -20 -20 -20 -20 -20 -20 -20 -20 -20 -20 -20 -18 39 40 28 14 35 24 36 33 43 41 38 47 28 33 26 9 11 -14 -20 -20 -20 -20 -20 -20 -14 -20 -20
-20 -20 -20 -20 -20 -20 -20 -20 -20 -20 -20 -20 -20 -20 -20 -20 -18 17 18 22 27 37 31 35 20 35 41 39 46 46 39 36 30 14 22 -20 -5 -5 -20 -20 -20 -18 13
-20 -20 -20 -20 -20 -20 -20 -20 -20 -20 -20 -20 -20 -20 -20 -20 -20 -20 11 22 40 30 34 25 26 33 41 48 42 46 38 39 27 35 22 20 24 27 11 -19 10 3 17
-20 -20 -20 -20 -20 -20 -20 -20 -20 -20 -20 -20 -20 -20 -20 -20 -18 -20 -2 14 30 41 29 32 30 25 35 40 40 39 41 36 28 22 33 18 19 34 4 12 25 29 12
-20 -20 -20 -20 -20 -20 -20 -20 -20 -20 -20 -20 -20 -20 -20 -20 -8 -17 -20 -9 8 19 22 32 26 29 35 36 31 37 39 37 26 30 35 29 27 -12 9 27 23 4 7
-20 -20 -20 -20 -20 -20 -20 -20 -20 -20 -20 -20 -20 -20 -20 -20 -20 -13 -20 2 -8 15 20 25 38 36 36 29 28 35 36 34 33 32 34 33 29 30 31 26 18 21 20
-20 -20 -20 -20 -20 -7 -5 -20 -20 -20 -20 -20 -20 -20 -20 -20 -20 -20 -20 -11 5 22 18 24 34 32 30 29 26 32 35 37 36 36 34 32 32 34 32 27 26 22 27
-20 -20 -20 -20 -19 -11 -20 -20 -20 -20 -20 -20 -20 -20 -20 -20 -20 -20 -20 -19 -6 2 16 17 25 34 24 27 27 30 32 33 35 38 36 34 34 35 35 30 13 25 24
-20 -20 -20 -20 -20 -20 -20 -20 -20 -20 -16 -20 -20 -20 -20 -20 -20 -20 -20 -20 -20 -13 10 20 16 25 26 27 29 25 26 22 26 30 32 31 30 29 27 29 31 18 1
-20 -20 -20 -20 -20 -20 -20 -20 -20 -20 -20 -20 -20 -20 -20 -20 -20 -20 -20 -20 -20 -14 -4 5 21 20 13 22 25 29 20 21 29 32 33 22 27 22 14 2 -14 -16 -17
-20 -20 -20 -20 -20 -20 -20 -20 -20 -20 -20 -20 -20 -20 -20 -20 -20 -20 -20 -20 -20 -20 -20 6 -8 24 24 18 15 10 12 17 23 19 11 -1 -4 -8 -19 -20 -20 -20 -20
-20 -20 -20 -20 -20 -20 -20 -20 -20 -20 -20 -20 -20 -20 -20 -20 -20 -20 -20 -20 -20 -20 -20 -20 -16 5 -11 10 4 19 -4 4 8 9 -10 -14 -20 -20 -19 -20 -20 -20 -20
-20 -20 -20 -20 -20 -20 -20 -20 -20 -20 -20 -20 -20 -20 -20 -20 -20 -20 -20 -20 -20 -20 -20 -17 23 8 26 -4 11 20 10 -4 -11 -15 -17 -16 -20 -20 -20 -20 -20 -20 -20
-20 -20 -20 -20 -20 -20 -20 -20 -20 -20 -20 -20 -20 -20 -20 7 -13 -11 1 -12 -20 -20 -20 -20 -6 -13 4 -20 -13 17 8 8 0 -11 -14 -20 -12 -20 -20 -20 -20 -20 -20
-20 -20 -20 -20 -20 -20 -20 -20 -20 -20 -20 -20 -20 -20 -0 -8 9 -15 -20 -19 -14 -20 -20 -18 2 -6 20 14 6 7 17 10 7 -16 -19 -20 -18 -20 -20 -20 -20 -20 -20
-20 -20 -20 -20 -20 -20 -20 -20 -20 -20 -20 -20 -19 7 8 4 -20 -20 -20 -20 -19 -7 -17 10 2 7 4 14 30 18 1 3 -3 -13 -20 -10 -15 -20 -20 -20 -20 -20 -20
-20 -20 -20 -20 -20 -20 -20 -20 -20 -20 -20 -20 -20 -20 -4 -20 -20 -16 -20 -20 9 8 9 6 13 15 23 -5 -3 19 16 3 -9 1 -2 -0 -19 -20 -20 -20 -20 -20 -20
-5 9 10 -19 -20 -20 -20 -20 -20 -20 -20 -20 -20 -20 -20 -20 -20 -20 -20 -16 -18 0 -10 -11 3 1 12 11 2 14 11 7 -12 -3 -10 -16 -20 -20 -20 -20 -20 -20 -20
-19 -2 -4 -8 -20 -20 -20 -20 -20 -20 -20 -15 -9 -20 -20 -20 -16 -12 -18 5 12 12 14 15 -1 12 16 19 18 14 19 9 -17 -20 -6 -20 -20 -20 -20 -20 -20 -20 -20

GFSMW_prec_radar_213.txt.gz
Reflectivity
-20 -20 -20 -20 -20 -20 -20 -20 -20 -8 24 7 7 -13 -8 -11 -16 -18 -1 19 -8 -17 -7 -15 -9 -20 -18 27 11 2 12 -8 -10 16 -20 -20 -20 -20 -20 -20 -20 -20 -20
-20 -20 -20 -20 -20 -20 -20 -20 -20 -20 9 7 7 -1 -3 13 12 12 6 -1 30 21 -17 -20 -20 -1 -20 4 16 30 26 -1 2 10 -20 -6 -20 -20 -20 -20 -20 -20 -20
-20 -20 -20 -20 -20 -20 -20 -20 -20 -20 -20 -12 5 21 26 18 6 20 -1 12 26 31 25 16 12 -16 -19 8 -20 -12 -3 2 -20 -20 -20 -20 -20 -0 -19 -20 -20 -20 -20
-20 -20 -20 -20 -20 -20 -20 -20 -20 -20 -20 -20 -20 -7 10 15 19 4 -1 -17 4 12 21 16 16 22 -19 9 19 -20 -20 -20 -20 -20 -20 -20 -20 -5 -6 -20 -20 -20 -20
-20 -20 -20 -20 -20 -20 -20 -20 -20 -20 -20 -20 -20 -20 -20 -4 24 20 32 29 14 -15 25 19 5 28 27 1 -19 23 -1 -19 -2 -20 -18 -20 10 -8 8 -20 -20 -19 -20
-20 -20 -20 -20 -20 -20 -20 -20 -20 -20 -20 -20 -20 -20 -20 -20 -20 -12 -12 0 1 35 43 24 20 30 36 25 20 17 20 29 -4 -14 -18 -16 15 -11 5 12 -6 5 -20
-20 -20 -20 -20 -20 -20 -20 -20 -20 -20 -20 -20 -20 -20 -20 -20 -20 -20 -20 -20 -20 -8 18 15 30 38 39 32 31 33 34 39 43 39 9 10 12 12 12 15 -5 12 2
-20 -20 -20 -20 -20 -20 -20 -20 -20 -20 -20 -20 -20 -20 -20 -20 -20 -19 -3 2 2 -20 -20 -10 -6 32 34 39 38 34 41 43 41 42 42 25 27 8 26 5 11 0 6
-20 -20 -20 -20 -20 -20 -20 -20 -20 -20 -20 -20 -20 -20 -20 -20 -20 -20 -20 -2 -17 -18 -20 -20 -20 20 28 26 38 39 24 30 22 25 46 41 34 20 12 1 11 2 6
-20 -20 -20 -20 -20 -20 -20 -20 -20 -20 -20 -20 -20 -20 -20 -20 -20 -20 -20 -20 -20 -14 0 -20 -20 -9 5 -13 18 31 12 9 20 19 31 43 36 25 23 18 8 12 -1
-20 -20 -20 -20 -20 -20 -20 -20 -20 -20 -20 -20 -20 -20 -20 -20 -20 -20 -20 -20 -20 -20 -20 -20 -20 -20 -20 -14 1 16 -1 3 12 25 33 40 42 34 29 28 23 20 13
-20 -20 -20 -20 -20 -20 -20 -20 -20 -20 -20 -20 -20 -20 -20 -20 -20 -20 -20 -19 -20 -20 -20 -15 1 -7 -20 -2 2 13 20 19 28 21 37 38 39 37 36 36 32 36 28
-20 -20 -20 -20 -20 -20 -20 -20 -20 -20 -20 -20 -20 -20 -20 -17 -20 -20 -20 -20 -20 -17 -19 -18 3 15 19 12 24 20 23 31 21 26 34 35 34 35 37 35 36 37 30
-20 -20 -20 -20 -20 -20 -20 -20 -20 -20 -20 -20 -20 -20 -20 -20 -19 -6 -20 -3 -13 -20 -17 -20 -3 19 25 33 34 27 30 35 32 30 31 27 31 34 26 27 32 32 28
-20 -20 -20 -20 -20 -20 -20 -20 -20 -20 -20 -20 -20 -20 -20 -20 -20 -12 -1 -7 -12 14 -20 -20 -20 11 28 32 31 29 29 35 35 35 32 27 28 29 32 34 33 28 23
-20 -20 -20 -20 -20 -20 -20 -20 -20 -20 -20 -20 -20 -20 -20 -20 -20 -20 -17 -20 -20 -20 -20 -20 18 10 28 30 34 30 32 32 33 32 33 35 35 35 34 30 27 30 27
-20 -20 -20 -20 -20 -20 -20 -20 -20 -20 -20 -20 -20 -20 -20 -20 -20 -20 -20 -20 -20 -20 -20 -20 -20 -20 1 34 30 25 29 34 33 33 36 37 37 33 31 30 28 22 25
-20 -20 -20 -20 -20 -20 -20 -20 -20 -20 -20 -20 -20 -20 -20 -20 -20 -20 -20 -20 -20 -20 -20 -20 -20 -20 -20 21 36 29 25 28 29 30 29 26 24 22 23 22 12 11 0
-20 -20 -20 -20 -20 -20 -20 -20 -20 -20 -20 -20 -20 -20 -20 -20 -20 -20 -20 -20 -20 -20 -20 -20 -20 -20 -20 21 28 30 23 29 25 19 13 11 1 2 -14 -15 -20 -20 -10
-20 -20 -20 -20 -20 -20 -20 -20 -20 -20 -20 -20 -20 -20 -20 -20 -20 -20 -20 -20 -19 -20 -20 -17 -20 11 -4 11 13 26 31 22 15 8 6 9 -13 -20 -20 -17 -8 -20 -20
-20 -20 -20 -20 -20 -20 -20 -20 -20 -20 -20 -20 -20 -20 -20 -20 -20 -14 -20 -18 -20 -20 -20 -20 -20 -3 3 13 -3 -1 23 34 22 2 4 -1 -20 -20 -20 -20 -20 -20 -20
-20 -20 -20 -20 -20 -20 -20 -20 -20 -20 -20 -20 -20 -20 -20 -20 -20 -20 -20 -11 -20 -20 -20 -20 -20 -20 -13 19 23 11 20 26 2 2 -14 -8 -20 -20 -20 -20 -20 -20 -20
-20 -20 -20 -20 -20 -20 -20 -20 -20 -20 -20 -20 -20 -20 -20 -20 -20 -20 -20 -20 -20 -20 -20 -20 -18 -20 -5 22 24 41 18 22 10 9 -10 -14 -20 -20 -20 -20 -20 -20 -20
-20 -20 -20 -11 -17 2 -9 -20 -20 -20 -20 -20 -20 -20 -20 -16 -2 -1 -17 -11 -20 -20 -20 -18 -7 2 5 4 22 11 26 22 17 14 9 -7 -20 -19 -20 -20 -20 -20 -20
-19 1 7 8 5 4 -8 -20 -20 -20 -20 -20 -20 -20 7 28 -20 -20 -20 -20 -20 -7 -16 -2 -4 -11 7 10 7 7 10 -12 4 10 6 -7 -13 -18 -20 -20 -20 -20 -20
-20 -4 4 5 3 7 8 -20 -20 -20 -20 -20 -20 -12 -19 -20 -20 -20 -20 7 -5 5 7 4 8 18 22 29 31 18 24 18 17 -5 8 9 -17 -19 -20 -20 -20 -20 -20

GFSMW_prec_radar_216.txt.gz
Reflectivity
-20 -20 -20 -20 -20 -20 -20 -20 -20 -20 2 -5 -5 2 -1 3 10 -17 -20 3 29 29 25 20 11 6 -20 -20 -4 8 -20 -20 -15 7 -17 -20 -20 -10 -20 -20 -12 -20 -20
-20 -20 -20 -20 -20 -20 -20 -20 -20 -20 -20 0 17 15 7 -20 -15 -4 8 8 -20 -10 30 0 22 0 -15 -20 -20 -12 4 -20 -20 -20 -1 12 -7 -8 -20 -15 -19 7 -4
-20 -20 -20 -20 -20 -20 -20 -20 -20 -20 -20 -20 -19 -16 10 0 5 8 -9 -4 7 -15 -20 -14 28 7 13 -13 -13 -6 -1 2 -20 -4 -20 -14 -20 -20 -20 -11 -20 -11 -14
-20 -20 -20 -20 -20 -20 -20 -20 -20 -20 -20 -20 -20 -20 -20 -20 -20 -16 12 26 20 4 -8 -12 -19 17 6 -1 18 -12 6 4 -20 -15 -19 -20 -20 -20 -20 -20 -15 -18 -20
-20 -20 -20 -20 -20 -20 -20 -20 -20 -20 -20 -20 -20 -20 -20 -20 -20 -20 -20 -20 -20 7 29 26 24 17 25 3 24 26 27 17 9 -11 -18 -20 -20 -20 -20 -20 -16 -10 -19
-20 -20 -20 -20 -20 -20 -20 -20 -20 -20 -20 -20 -20 -20 -20 -20 -20 -20 -20 -20 -20 -20 -20 9 5 24 30 9 4 9 27 24 37 45 39 22 9 16 -13 10 20 10 23
-20 -20 -20 -20 -20 -20 -20 -20 -20 -20 -20 -20 -20 -20 -20 -20 -20 -20 -20 -20 -20 -4 -6 8 9 17 21 17 25 25 13 24 34 39 30 43 29 16 25 9 24 25 26
-20 -20 -20 -20 -20 -20 -20 -20 -20 -20 -20 -20 -20 -20 -20 -20 -20 -20 -20 -20 -11 -3 2 1 10 -2 -16 23 31 25 24 -11 10 10 22 35 46 44 34 35 34 21 15
-20 -20 -20 -20 -20 -20 -20 -20 -20 -20 -20 -20 -20 -20 -20 -20 -20 -20 -20 -20 -20 -20 -20 -8 -6 0 3 -16 -0 26 28 24 20 6 8 33 31 37 40 39 34 29 11
-20 -20 -20 -20 -20 -20 -20 -20 -20 -20 -20 -20 -20 -20 -20 -20 -20 -20 -20 -20 -20 -20 -20 -20 -17 -20 -8 2 -20 -18 14 23 23 24 30 31 30 30 31 32 21 21 17
-20 -20 -20 -20 -20 -20 -20 -20 -20 -20 -20 -20 -20 -20 -20 -20 -20 -20 -20 -20 -20 -20 -20 -20 -20 -9 -20 -20 -20 -20 -12 9 24 28 25 18 14 15 28 32 26 26 26
-20 -20 -20 -20 -20 -20 -20 -20 -20 -20 -20 -20 -20 -20 -20 -20 -20 -20 -20 -20 -20 -20 -20 -19 -11 -20 -20 -20 -20 -20 -11 3 12 9 22 26 28 23 20 30 28 27 21
-20 -20 -20 -20 -20 -20 -20 -20 -20 -20 -20 -20 -20 -20 -20 -20 -20 -20 -20 -20 -20 -20 -20 -20 -14 -20 -20 6 13 -2 13 22 22 20 23 25 27 28 29 31 32 27 28
-20 -20 -20 -20 -20 -20 -20 -20 -20 -20 -20 -20 -20 -20 -20 -13 -9 -8 -20 -20 -20 -20 -20 -4 -0 -18 -20 -10 24 26 22 23 19 24 27 24 17 25 22 30 31 28 27
-20 -20 -20 -20 -20 -20 -20 -20 -20 -20 -20 -20 -20 -3 -0 -16 -2 -17 -20 -20 -20 -20 -20 -10 -19 -11 -10 -20 -14 28 32 28 30 34 39 38 37 37 29 28 28 25 32
-20 -20 -20 -20 -20 -20 -20 -20 -20 -20 -20 -20 -20 -20 -8 -11 -20 -20 -20 -20 -20 -20 -20 -20 -6 -11 -20 15 22 29 37 34 34 33 35 35 35 34 37 34 29 29 32
-20 -20 -20 -20 -20 -20 -20 -20 -20 -20 -20 -20 -20 -20 -20 -20 -20 -20 -20 -20 -20 -20 -20 -20 -12 -2 -20 -15 21 19 31 34 33 28 27 33 36 36 32 32 35 36 35
-20 -20 -20 -20 -20 -20 -20 -20 -20 -20 -20 -20 -20 -20 -20 -20 -20 -20 -20 -20 -20 -20 -20 -20 -20 -7 -20 -3 17 17 16 35 30 30 32 34 37 34 36 35 33 34 34
-20 -20 -20 -20 -20 -20 -20 -20 -20 -20 -20 -20 -20 -20 -20 -20 -20 -20 -20 -20 -20 -20 -20 -20 -20 -2 -20 2 12 18 6 38 34 31 31 31 35 34 29 26 21 18 18
-20 -20 -20 -20 -20 -20 -20 -20 -20 -20 -20 -20 -20 -20 -20 -20 -20 -20 -20 -20 -16 -20 -20 -20 -20 -5 -20 -2 10 13 34 23 28 31 28 30 33 33 22 24 13 10 9
-20 -20 -20 -20 -20 -20 -20 -20 -20 -20 -20 -20 -20 -20 -20 -20 -20 -20 -9 -20 -20 -20 -17 -20 -20 -20 -20 -12 7 19 3 15 25 27 17 26 32 30 16 11 5 6 -2
-20 -20 -20 -20 -20 -20 -20 -20 -7 -20 -20 -20 -20 -20 -20 -20 -20 -19 -9 -18 -20 -20 -20 -20 -20 -20 -20 -6 5 20 24 7 26 25 22 31 29 26 2 -1 1 -17 -15
-20 -20 -20 -20 -20 -20 -19 -0 -1 -20 17 19 -20 -20 -20 -20 -18 -12 -20 -20 -20 -20 -20 -20 -20 -20 -20 -19 10 21 25 20 14 30 30 27 23 13 14 9 -15 -20 -16
-20 -20 -18 -0 2 2 4 10 9 11 8 -20 -20 -20 -19 -4 -19 3 -2 -8 -20 -19 -9 -20 -20 -20 -20 -20 -9 12 31 34 26 26 22 19 -13 -20 -16 -20 -17 -20 -20
-20 -20 -20 -4 -16 3 5 7 8 13 6 11 -20 -20 -20 -1 -5 9 26 15 -13 -7 -17 -20 -20 -20 -20 -14 12 10 10 7 21 7 14 18 19 7 -4 1 -20 -20 -20
-12 -20 -14 -9 -4 3 1 17 18 20 5 -1 -20 -8 -9 -11 -16 -20 -16 -17 -10 -10 -4 9 -0 -11 3 19 19 26 27 36 18 20 13 10 8 8 13 -3 -19 -20 -20

GFSMW_prec_radar_222.txt.gz
Reflectivity
-20 -20 -20 -20 -20 -20 -20 -20 -20 -20 -20 -20 -13 9 6 -20 3 -20 8 18 16 7 17 18 0 21 17 -4 3 -14 -20 -20 8 -20 -20 -20 -20 -20 -12 -20 -20 -20 -20
-20 -20 -20 -20 -20 -20 -20 -20 -20 -20 -20 -20 -20 -20 -20 -20 -20 -17 -6 -16 -1 10 -20 3 9 13 -10 17 29 26 18 -10 -4 -16 -20 -20 -20 -20 1 5 -20 -20 -20
-20 -20 -20 -20 -20 -20 -20 -20 -20 -20 -20 -20 -20 -20 -20 -20 -20 -20 -20 -20 -20 -20 -5 -1 -4 16 16 -5 2 24 16 18 24 7 18 7 -20 -20 -20 -20 -20 -20 -20
-20 -20 -20 -20 -20 -20 -20 -20 -20 -20 -20 -20 -20 -20 -20 -20 -20 -20 -20 -20 -20 -20 -20 -20 -12 -6 14 19 -16 22 17 17 18 19 13 21 17 15 5 -19 -20 -20 -20
-20 -20 -20 -20 -20 -20 -20 -20 -20 -20 -20 -20 -20 -20 -20 -20 -20 -20 -20 -20 -20 -20 -20 -20 -15 -20 -18 -14 16 23 19 33 6 17 31 2 15 28 22 17 21 -19 -17
-20 -20 -20 -20 -20 -20 -20 -20 -20 -20 -20 -20 -20 -20 -20 -20 -20 -20 -20 -20 -20 -20 -20 -20 -20 -20 -20 -20 -20 -20 -10 15 20 -0 18 4 5 11 21 26 41 19 -2
-20 -20 -20 -20 -20 -20 -20 -20 -20 -20 -20 -20 -20 -20 -20 -20 -20 -20 -20 -20 -20 -20 -20 -20 -20 -20 -20 -20 -2 -20 -20 -8 15 26 20 27 35 27 8 -4 24 26 24
-20 -20 -20 -20 -20 -20 -20 -20 -20 -20 -20 -20 -20 -20 -20 -20 -20 -20 -20 -20 -20 -20 -20 -20 -20 -20 -20 -20 -20 -19 -20 -20 0 -17 16 27 7 19 25 32 12 25 32
-20 -20 -20 -20 -20 -20 -20 -20 -20 -20 -20 -20 -20 -20 -20 -20 -20 -20 -20 -20 -20 -20 23 -8 -14 -20 -20 -20 -20 -20 -20 -20 -13 -19 -20 -20 8 25 23 14 22 6 18
-20 -20 -20 -20 -20 -20 -20 -20 -20 -20 -20 -20 -20 -20 -20 -20 -20 -20 -1 7 -20 -5 32 -20 -20 -20 -20 26 -20 -20 -20 -17 -20 -20 -14 -11 5 -20 -13 26 20 24 3
-20 -20 -20 -20 -20 -20 -20 -20 -20 -20 -20 -20 -20 -20 -20 -20 -20 -20 11 -20 5 -8 -20 40 35 30 -4 -20 1 -9 -19 -20 -20 -18 -18 -13 12 9 8 5 7 27 23
-20 -20 -20 -20 -20 -20 -20 -20 -20 -20 -20 -20 -20 -20 -20 -20 -20 -20 -20 -20 -20 -17 32 32 35 30 -17 27 1 -20 -20 -20 -20 -20 -20 -20 -1 2 6 19 19 17 18
-20 -20 -20 -20 -20 -20 -20 -20 -20 -20 -20 -20 -20 -20 -20 -20 -20 -20 -20 -20 -20 -20 -20 12 25 -4 16 17 -1 -20 -20 -20 -20 -20 -20 -20 -20 -20 0 16 21 19 24
-20 -20 -20 -20 -20 -20 -20 -20 -20 -20 -20 -20 -20 -20 -20 -20 -20 -20 -20 -20 -20 -20 -20 -20 -11 26 30 24 12 -3 -20 -20 -20 -20 -20 -20 -20 9 24 21 26 26 28
-20 -20 -20 -20 -20 -20 -20 -20 -20 -20 -20 -20 -20 -20 -20 -20 -20 -20 -20 -20 -20 -20 -20 -20 -19 13 14 -1 28 -12 7 -14 -20 -20 -20 -20 -20 -1 12 28 30 28 32
-20 -20 -20 -20 -20 -20 -20 -20 -20 -20 -20 -20 -20 -20 -20 -20 -20 -20 -20 -20 -20 -20 -20 -20 -20 -20 -13 -20 24 10 -2 -20 -20 -20 -20 -20 -19 15 24 28 27 26 26
-20 -20 -20 -20 -20 -20 -20 -20 -20 -20 -20 -20 -20 -20 -20 -20 -19 -20 -20 -20 -20 -20 -5 -5 -20 -20 -20 -10 21 18 6 -20 -20 -20 -20 -20 -13 14 29 30 27 26 30
-20 -20 -20 -20 -20 -20 -20 -20 -20 -20 -20 -20 -20 -20 -20 -20 -20 -20 15 -15 -20 -20 -20 -20 27 15 -20 -20 -3 -5 -20 -20 -20 -20 -20 -15 -1 30 32 28 22 20 13
-20 -20 -20 -20 -20 -20 -20 -20 -20 -20 -20 -20 -20 -20 -20 -20 -20 -20 -20 -19 -20 -19 -20 19 2 -20 -20 -20 -10 8 -13 -20 -20 -20 -20 -7 4 34 33 33 27 21 23
-20 -20 -20 -20 -20 -20 -20 -20 -20 -20 -20 -20 -20 -20 -20 -20 -20 14 18 -15 32 27 -20 -20 -20 -20 -20 -20 -8 9 0 -20 5 -4 -10 15 11 26 30 30 18 8 9
-20 -20 -20 -20 -20 -20 -20 -20 -20 -20 -20 -20 -20 -12 -20 -20 -15 -20 5 -20 -20 -20 -20 -20 -20 -20 -6 -19 5 15 -11 -20 10 -19 -20 -14 13 27 28 28 19 13 19
-20 -20 -20 -20 -20 -20 -20 -20 -20 -20 -20 -5 1 -20 -0 -20 8 -9 -19 -20 -20 -19 -20 8 -2 -6 -17 20 14 15 12 -7 -18 -20 -13 -2 14 24 31 26 24 14 15
-20 -20 -20 -20 -20 -20 -20 -20 -20 -20 2 -15 -1 5 3 -18 -19 -20 -19 -20 -20 -20 1 -11 -19 -20 -11 17 27 1 11 9 -7 -20 10 19 22 30 26 20 12 11 13
-20 -20 -20 -20 -20 -20 -20 -20 -6 1 0 -13 -13 -18 -18 -8 -20 -4 -12 -20 -20 -19 -18 -12 -9 -11 -7 24 18 5 11 18 13 6 10 -2 0 22 22 19 14 13 10
-20 -20 -20 -20 -20 -20 -20 -20 -8 -5 -9 -9 -19 -20 -20 -17 2 2 -10 -14 -20 -6 -4 -6 -1 -9 -13 -0 17 12 10 6 3 7 -1 -0 8 18 20 17 13 13 6
-20 -20 -20 -20 -20 -20 -20 -20 -18 6 -4 -11 -13 -2 -2 -20 -2 -6 -20 5 -5 9 -3 -17 22 12 -13 8 19 19 20 17 9 -0 -5 -3 -0 13 17 18 14 12 5

GFSMW_prec_radar_225.txt.gz
Reflectivity
-20 -20 -20 -20 -20 -20 -20 -20 -20 -20 -20 -20 -20 -20 -20 -20 -20 -20 -20 -20 -20 -20 -20 -20 -20 -20 -17 26 18 18 22 27 -20 9 -5 -20 -20 -20 -20 -20 -20 -20 -19
-20 -20 -20 -20 -20 -20 -20 -20 -20 -20 -20 -20 -20 -20 -20 -20 -20 -20 -20 -20 -20 -20 -20 -20 -20 -20 -20 -20 18 12 16 8 28 26 25 9 -11 -20 -18 -20 -20 -20 -20
-20 -20 -20 -20 -20 -20 -20 -20 -20 -20 -20 -20 -20 -20 -20 -20 -20 -20 -20 -20 -20 -20 -20 -20 7 9 -7 2 6 13 -3 8 6 16 10 11 16 -6 13 -16 -20 -20 -20
-20 -20 -20 -20 -20 -20 -20 -20 -20 -20 -20 -20 -20 -20 -20 -20 -20 -20 -20 -20 -20 -20 -20 -20 -20 -20 -18 -15 1 -9 8 10 15 -19 21 -3 5 25 8 23 11 -19 -19
-20 -20 -20 -20 -20 -20 -20 -20 -20 -20 -20 -20 -20 -20 -20 -20 -20 -20 -20 -20 -20 -20 -20 -20 -20 -8 -17 -7 13 -6 -0 15 11 27 25 11 -11 -5 12 -17 2 6 25
-20 -20 -20 -20 -20 -20 -20 -20 -20 -20 -20 -20 -20 -20 -20 -20 -20 -20 -20 -20 -20 -20 -20 -20 -20 -20 -20 -18 -10 -13 -17 -20 -16 7 17 25 33 18 10 -3 -20 2 9
-20 -20 -20 -20 -20 -20 -20 -20 -20 -20 -20 -20 -20 -20 -20 -20 -20 -20 -20 -20 -20 -20 -20 -13 -20 -20 -20 -20 -20 -20 -19 -15 -3 -1 2 1 23 18 25 29 36 27 10
-20 -20 -20 -20 -20 -20 -20 -20 -20 -20 -20 -20 -20 -20 -20 -20 -20 -20 -20 -20 -20 -20 -20 -20 -17 -0 17 24 -20 -20 -20 -20 -20 -18 -19 -20 -13 -2 23 23 39 27 16
-20 -20 -20 -20 -20 -20 -20 -20 -20 -20 -20 -20 -20 -20 -20 -20 -20 -20 -20 -20 -20 -20 -20 -20 -20 -20 -12 14 25 24 27 -13 -20 -20 -20 -20 -20 -20 -10 12 4 13 37
-20 -20 -20 -20 -20 -20 -20 -20 -20 -20 -20 -20 -20 -20 -20 -20 -20 -20 -20 -20 -20 -20 -20 -20 -20 -20 -20 -20 29 34 26 28 32 2 -3 -20 -20 -20 -20 3 8 16 18
-20 -20 -20 -20 -20 -20 -20 -20 -20 -20 -20 -20 -20 -20 -20 -20 -20 -20 -20 -20 -20 -20 -20 -20 -20 -20 -20 12 36 40 36 24 14 4 -2 -8 -8 -20 -20 -3 4 12 14
-20 -20 -20 -20 -20 -20 -20 -20 -20 -20 -20 -20 -20 -20 -20 -20 -20 -20 -20 -20 -20 -20 -20 -20 -20 -20 -20 -8 13 22 13 1 15 16 16 -16 -20 -20 -20 -14 -13 6 10
-20 -20 -20 -20 -20 -20 -20 -20 -20 -20 -20 -20 -20 -20 -20 -20 -20 -20 -20 -20 -20 -20 -20 -20 -20 -20 -20 -20 -7 20 25 0 14 17 6 -16 -20 -20 -20 -20 -19 2 5
-20 -20 -20 -20 -20 -20 -20 -20 -20 -20 -20 -20 -20 -20 -20 -20 -20 -20 -20 -20 -20 -20 -20 -20 -20 -20 -20 -20 -20 -12 8 22 22 5 -20 -20 -5 -19 -20 -20 -20 -2 -0
-20 -20 -20 -20 -20 -20 -20 -20 -20 -20 -20 -20 -20 -20 -20 -20 -20 -20 -20 -20 -20 -20 -20 -20 -20 -20 -20 -20 -20 15 28 11 17 20 5 -20 16 14 9 -15 -20 -20 0
-20 -20 -20 -20 -20 -20 -20 -20 -20 -20 -20 -20 -20 -20 -20 -20 -20 -20 -20 -20 -20 -20 -20 -20 -20 -20 20 -20 -5 -20 -20 -16 9 -14 -20 -20 11 -14 -20 -20 -20 -5 31
-20 -20 -20 -20 -20 -20 -20 -20 -20 -20 -20 -20 -20 -20 -20 -20 -20 -20 -20 -20 -20 -20 -20 5 17 -18 -20 -20 -20 -16 -10 -20 -20 -20 -20 -20 1 -10 -20 -13 2 15 29
-20 -20 -20 -20 -20 -20 -20 -20 -20 -20 -20 -20 -20 -20 -20 -20 -20 -20 -20 -20 -20 -20 -20 11 13 -20 -20 -20 -20 -20 -20 -20 -20 -20 -20 -17 -15 -14 -8 5 20 14 28
-20 -20 -20 -20 -20 -20 -20 -20 -20 -20 -20 -20 -20 -20 -20 -20 -20 -20 -20 -20 -18 -20 -20 -20 -20 31 17 -20 -20 -20 -20 -20 -20 -20 -20 -17 -20 -0 7 2 13 23 20
-20 -20 -20 -20 -20 -20 -20 -20 -20 -20 -20 -20 -20 -20 -18 5 -20 -5 -19 -20 -11 4 -20 -20 -20 -20 -20 -20 -14 10 -20 -20 -17 -20 -20 2 -18 1 -2 2 13 12 5
-20 -20 -20 -20 -20 -20 -20 -20 -20 -20 -20 -20 -20 -14 -18 -20 2 -9 -15 -20 -20 -20 -20 -20 -20 -20 -2 -5 4 -19 -9 8 1 -19 -20 -20 2 -3 7 14 16 19 12
-20 -20 -20 -20 -20 -20 -20 -20 -20 -20 -20 -13 -20 -20 -20 -9 -12 -12 -20 6 10 3 -20 -20 -20 -20 -20 -10 -20 -20 6 11 -11 -20 -20 -12 4 5 13 8 28 24 10
-20 -20 -20 -20 -20 -20 -20 -20 -20 -17 -20 -20 -20 -20 -7 -20 -20 -20 -20 -15 -7 -14 -20 -20 -20 -20 -20 -20 7 -1 17 20 2 -20 8 0 4 15 5 -0 16 18 12
-20 -20 -20 -20 -20 -20 -20 -20 -12 -20 -19 -20 -17 -20 -20 -1 -20 -20 -20 -20 -20 -17 -12 -11 -13 -9 -6 5 13 -2 29 24 4 13 7 5 2 -4 -5 9 17 16 12
-20 -20 -20 -20 -20 -20 -20 -20 -20 -20 -20 -10 4 0 -20 -20 -20 -19 -12 -4 -19 3 2 -11 -13 -18 -19 -14 12 -0 6 8 6 8 -0 -11 -14 -7 -1 16 20 13 11
-20 -20 -20 -20 -20 -20 -20 -20 -20 -20 -10 -19 -11 10 -0 -20 -20 -19 -20 -20 -10 11 9 -15 -20 -14 11 -20 -10 -8 16 19 9 -4 -16 -15 -14 -10 2 12 21 14 10